Location: Wingville
(42.9917°N, 90.4915°W)
Time: 11:14:41
(UTC+00:00)

YUBILEINY - Pass Details

Date: 09 July 2022
Orbit: 1478 x 1509 km, 82.5° (Epoch: 08 August)

Event Time Altitude Azimuth Distance (km) Brightness Sun altitude
Rises 08:56:37 0° 353° (N) 4,644 ? -13.9°
Reaches altitude 10° 08:59:38 10° 358° (N) 3,656 ? -13.6°
Maximum altitude 09:08:16 57° 76° (ENE) 1,711 ? -12.5°
Drops below altitude 10° 09:16:47 10° 154° (SSE) 3,615 ? -11.5°
Sets 09:19:43 0° 159° (SSE) 4,589 ? -11.1°
